SCP
0 0 0 0 0 0 0 0 0 0 0 0 0 0 0 0 0 0 0 0 0 0 0 0 0 0 0 0 0 0 0 0 0 0 0 0 0 0 0 0 0 0 0
0 0 0 0 0 0 0 0 0 0 0 0 0 0 0 0 0 0 0 0 0 0 0 0 0 0 0 0 0 0 0 0 0 0 0 0 0 0 0 0 0 0 0
0 0 0 0 0 0 0 0 0 0 0 0 0 0 0 0 0 0 0 0 0 0 0 0 0 0 0 0 0 0 0 0 0 0 0 0 0 0 0 0 0 0 0
0 0 0 0 0 0 0 0 0 0 0 0 0 0 0 0 0 0 0 0 0 0 0 0 0 0 0 0 0 0 0 0 0 0 0 0 0 0 0 0 0 0 0
0 0 0 0 0 0 0 0 0 0 0 0 0 0 0 0 0 0 0 0 0 0 0 0 0 0 0 0 0 0 0 0 0 0 0 0 0 0 0 0 0 0 0
0 0 0 0 0 0 0 0 0 0 0 0 0 0 0 0 0 0 0 0 0 0 0 0 0 0 0 0 0 0 0 0 0 0 0 0 0 0 0 0 0 0 0
0 0 0 0 0 0 0 0 0 0 0 0 0 0 0 0 0 0 0 0 0 0 0 0 0 0 0 0 0 0 0 0 0 0 0 0 0 0 0 0 0 0 0
0 0 0 0 0 0 0 0 0 0 0 0 0 0 0 0 0 0 0 0 0 0 0 0 0 0 0 0 0 0 0 0 0 0 0 0 0 0 0 0 0 0 0
0 0 0 0 0 0 0 0 0 0 0 0 0 0 0 0 0 0 0 0 0 0 0 0 0 0 0 0 0 0 0 0 0 0 0 0 0 0 0 0 0 0 0
0 0 0 0 0 0 0 0 0 0 0 0 0 0 0 0 0 0 0 0 0 0 0 0 0 0 0 0 0 0 0 0 0 0 0 0 0 0 0 0 0 0 0
0 0 0 0 0 0 0 0 0 0 0 0 0 0 0 0 0 0 0 0 0 0 0 0 0 0 0 0 0 0 0 0 0 0 0 0 0 0 0 0 0 0 0
0 0 0 0 0 0 0 0 0 0 0 0 0 0 0 0 0 0 0 0 0 0 0 0 0 0 0 0 0 0 0 0 0 0 0 0 0 0 0 0 0 0 0
0 0 0 0 0 0 0 0 0 0 0 0 0 0 0 0 0 0 0 0 0 0 0 0 0 0 0 0 0 0 0 0 0 0 0 0 0 0 0 0 0 0 0
0 0 0 0 0 0 0 0 0 0 0 0 0 0 0 0 0 0 0 0 0 0 0 0 0 0 0 0 0 0 0 0 0 0 0 0 0 0 0 0 0 0 0
0 0 0 0 0 0 0 0 0 0 0 0 0 0 0 0 0 0 0 0 0 0 0 0 0 0 0 0 0 0 0 0 0 0 0 0 0 0 0 0 0 0 0
0 0 0 0 0 0 0 0 0 0 0 0 0 0 0 0 0 0 0 0 0 0 0 0 0 0 0 0 0 0 0 0 0 0 0 0 0 0 0 0 0 0 0
0 0 0 0 0 0 0 0 0 0 0 0 0 0 0 0 0 0 0 0 0 0 0 0 0 0 0 0 0 0 0 0 0 0 0 0 0 0 0 0 0 0 0
0 0 0 0 0 0 0 0 0 0 0 0 0 0 0 0 0 0 0 0 0 0 0 0 0 0 0 0 0 0 0 0 0 0 0 0 0 0 0 0 0 0 0
0 0 0 0 0 0 0 0 0 0 0 0 0 0 0 0 0 0 0 0 0 0 0 0 0 0 0 0 0 0 0 0 0 0 0 0 0 0 0 0 0 0 0
0 0 0 0 0 0 0 0 0 0 0 0 0 0 0 0 0 0 0 0 0 0 0 0 0 0 0 0 0 0 0 0 0 0 0 0 0 0 0 0 0 0 0
0 0 0 0 0 0 0 0 0 0 0 0 0 0 0 0 0 0 0 0 0 0 0 0 0 0 0 0 0 0 0 0 0 0 0 0 0 0 0 0 0 0 0
0 0 0 0 0 0 0 0 0 0 0 0 0 0 0 0 0 0 0 0 0 0 0 0 0 0 0 0 0 0 0 0 0 0 0 0 0 0 0 0 0 0 0
0 0 0 0 0 0 0 0 0 0 0 0 0 0 0 0 0 0 0 0 0 0 0 0 0 0 0 0 0 0 0 0 0 0 0 0 0 0 0 0 0 0 0
0 0 0 0 0 0 0 0 0 0 0 0 0 0 0 0 0 0 0 0 0 0 0 0 0 0 0 0 0 0 0 0 0 0 0 0 0 0 0 0 0 0 0
0 0 0 0 0 0 0 0 0 0 0 0 0 0 0 0 0 0 0 0 0 0 0 0 0 0 0 0 0 0 0 0 0 0 0 0 0 0 0 0 0 0 0
-0 -0 -0 0 0 0 0 0 0 0 0 0 0 0 0 0 0 0 0 0 0 0 0 0 0 0 0 0 0 0 0 0 0 0 0 0 0 0 0 0 0 0 0
Wind_Speed
5 4 4 4 4 4 4 4 4 3 4 4 4 4 3 3 3 3 3 3 3 2 1 2 2 1 1 1 0 1 1 1 2 3 3 3 3 3 4 3 4 4 5
5 4 4 4 4 4 4 4 4 4 4 3 3 3 3 3 3 3 3 3 3 3 2 2 2 2 2 1 1 1 1 2 2 3 3 3 3 3 3 4 4 4 4
4 4 4 4 4 4 4 4 4 4 3 3 3 3 3 3 3 3 3 3 3 3 3 3 3 3 2 2 2 2 2 2 1 2 3 3 3 3 3 4 4 4 5
4 4 4 4 3 3 3 4 4 4 4 4 3 3 3 3 3 3 3 3 2 2 2 2 3 3 4 3 2 2 2 1 1 2 2 3 3 3 2 3 4 3 5
4 4 3 3 3 3 3 3 3 3 3 3 3 2 2 2 3 3 3 3 3 2 1 2 2 3 4 4 3 3 3 2 2 2 2 3 3 2 3 3 4 4 5
4 3 3 3 3 3 3 3 2 3 3 3 3 3 3 2 4 5 4 3 3 2 2 2 2 3 4 4 5 4 4 3 3 3 3 3 4 3 3 3 3 4 4
3 3 3 3 3 3 3 3 3 2 2 3 3 3 3 3 5 5 5 2 3 2 2 2 2 2 3 2 3 5 5 7 6 4 4 4 4 3 3 4 4 4 5
3 3 3 3 3 3 3 3 2 2 2 2 2 3 2 3 5 5 5 3 2 2 2 3 2 2 3 3 2 2 3 4 5 4 4 4 4 3 4 4 4 4 5
2 2 2 3 3 3 3 3 2 2 1 2 2 2 2 3 4 5 4 2 2 2 2 2 3 3 5 5 3 3 3 3 5 7 7 6 6 6 4 2 2 3 4
1 2 2 3 3 3 3 2 2 2 2 2 1 2 2 2 4 5 4 2 2 2 2 2 4 4 6 5 3 3 3 4 3 4 4 5 4 4 6 3 2 3 3
1 1 1 2 2 3 3 2 2 2 2 1 1 1 1 2 4 5 5 2 2 2 2 2 3 5 6 6 4 3 4 3 2 2 2 2 2 2 3 3 3 3 4
1 1 1 1 1 2 3 2 2 2 2 2 1 1 1 2 3 4 5 4 3 2 2 2 3 5 6 6 3 3 4 3 1 1 2 2 2 3 3 3 4 4 4
1 1 1 1 1 2 3 3 2 2 2 2 1 1 1 1 2 5 5 5 4 2 2 4 4 5 4 3 4 4 3 1 1 1 2 3 3 3 3 3 3 4 4
1 1 1 1 1 1 1 1 2 2 2 2 2 2 1 1 2 2 2 2 3 2 1 3 4 4 3 3 2 2 2 1 1 2 2 2 2 2 2 2 3 3 4
1 1 1 1 1 1 1 1 1 2 3 3 2 2 2 2 3 4 3 2 2 2 2 1 1 1 1 1 1 1 1 1 2 2 2 2 3 3 3 3 3 3 3
0 1 0 1 1 1 1 1 2 1 3 3 3 3 3 4 4 5 5 4 3 3 1 1 1 2 2 2 2 2 2 2 2 2 2 2 3 3 3 3 3 3 4
1 0 0 0 0 0 0 0 0 1 2 2 3 3 3 4 4 4 3 2 2 2 1 1 1 2 2 2 2 2 2 2 2 2 2 2 3 3 3 4 3 4 4
0 0 0 1 1 1 1 1 1 1 1 1 3 4 4 4 4 3 3 1 1 1 1 1 2 2 2 2 2 2 2 2 2 2 2 3 3 3 4 4 4 4 5
1 0 0 0 0 1 1 1 1 1 1 1 1 2 4 4 4 3 2 0 1 1 1 1 2 2 2 2 2 2 2 2 2 2 3 3 3 3 4 4 4 7 6
1 1 1 0 0 1 1 1 1 1 1 1 1 2 2 2 1 2 1 1 1 2 2 2 2 2 2 2 2 2 2 2 3 3 3 3 3 3 4 5 4 5 5
1 1 2 1 1 1 1 1 1 1 2 2 2 3 4 1 2 2 2 2 2 2 2 2 2 2 2 2 2 3 3 3 3 3 3 3 3 4 4 4 5 5 6
1 1 1 1 1 1 1 1 1 2 2 2 2 3 5 2 1 1 2 2 2 2 2 2 3 3 3 3 3 3 4 4 4 3 4 4 4 4 4 4 5 5 5
0 1 1 1 1 2 2 1 1 2 2 2 2 2 2 2 2 2 2 2 2 2 2 2 3 3 3 3 3 4 4 5 4 4 5 4 4 4 4 5 6 6 5
1 1 2 1 1 1 1 2 2 2 2 2 2 2 2 2 2 3 3 2 2 2 2 2 3 4 5 4 3 3 4 5 5 5 6 5 5 5 5 5 6 6 6
1 1 2 2 2 2 2 2 2 2 2 2 2 2 2 2 3 3 3 2 3 3 4 4 3 4 5 6 6 5 8 11 10 6 5 5 6 6 6 6 6 6 6
1 1 2 2 2 2 2 2 2 2 2 3 3 3 3 3 3 3 3 3 3 3 4 4 4 5 6 6 7 9 11 12 11 11 6 4 5 5 5 5 6 6 6
Wind_Direction
177 175 171 177 176 172 177 179 176 172 169 172 168 167 166 165 165 159 163 162 164 175 185 180 201 201 198 220 207 230 245 207 240 277 277 282 281 280 295 296 295 296 301
175 170 169 168 171 172 177 177 173 171 171 169 164 165 169 171 170 168 171 173 175 182 193 190 207 203 199 213 212 232 241 241 220 262 283 281 279 275 277 289 300 304 294
163 161 159 162 168 173 172 170 170 168 165 165 166 172 178 178 176 176 173 178 181 187 193 199 210 199 211 223 224 230 240 255 235 237 271 279 284 292 291 292 295 297 300
151 156 160 166 169 169 169 168 168 169 168 173 178 178 178 175 175 176 176 175 176 188 199 210 217 212 213 216 221 226 227 238 245 240 264 277 283 292 284 289 302 303 303
146 150 159 158 152 148 146 157 163 169 175 172 169 171 169 174 181 180 183 179 178 185 204 222 229 231 230 229 227 216 209 219 233 245 257 276 279 290 283 286 291 301 298
146 148 146 141 140 145 149 152 157 166 173 169 169 176 187 201 202 200 192 184 184 191 207 230 240 242 244 249 257 252 240 227 227 238 248 253 264 274 283 283 287 297 294
141 144 146 144 144 151 154 154 168 171 170 175 179 183 196 211 212 208 203 183 177 194 206 216 237 253 262 251 255 259 260 263 259 249 246 247 254 259 266 273 273 275 274
136 143 150 147 147 148 150 160 173 175 172 180 185 192 198 213 216 214 207 177 176 198 212 214 221 240 251 248 233 242 249 257 263 260 246 249 258 257 252 261 266 278 279
142 153 157 154 155 155 160 166 168 162 162 184 185 187 197 218 223 219 208 178 188 213 224 225 228 229 247 254 237 234 255 265 268 270 271 272 280 283 285 283 284 289 289
162 166 162 163 164 165 170 169 165 167 169 181 195 200 206 218 229 223 216 187 195 212 228 235 244 250 253 252 227 220 242 258 261 269 274 281 281 284 292 275 263 270 285
122 132 144 158 166 162 161 160 158 158 149 169 186 218 219 228 235 232 227 200 198 206 220 232 246 255 260 259 257 238 252 267 247 242 259 271 276 278 280 274 259 254 261
84 104 121 147 160 147 149 155 154 154 157 171 175 216 243 248 249 248 242 235 219 207 223 233 244 253 263 264 263 272 280 282 250 234 245 261 268 274 278 275 270 264 257
83 97 119 124 129 143 155 160 158 161 169 187 187 210 241 251 254 256 252 243 241 239 230 237 248 255 262 263 271 273 275 260 224 239 251 265 268 269 276 280 278 275 276
98 99 111 117 118 128 150 162 172 183 188 199 206 218 241 253 252 255 254 250 245 249 251 244 246 249 259 266 273 279 275 243 234 245 258 269 277 276 277 283 286 294 289
98 111 106 104 126 132 128 183 209 212 209 207 208 211 214 233 248 252 250 234 212 215 216 220 214 211 219 233 249 269 255 247 254 260 261 273 282 286 290 290 278 281 276
77 81 94 104 118 115 109 12 332 294 269 265 259 248 248 256 266 265 263 252 246 232 224 191 196 202 220 231 238 249 252 242 244 252 264 264 270 274 282 289 283 276 280
166 187 189 127 146 161 180 177 308 333 326 307 289 279 276 273 274 280 281 261 250 223 201 200 217 220 228 234 239 242 255 262 252 250 260 266 272 274 279 282 288 286 283
34 272 276 204 200 203 213 220 219 222 285 315 314 307 303 295 290 291 297 308 271 268 248 228 241 245 237 236 241 251 262 266 252 251 257 259 264 270 274 276 277 281 284
343 310 257 228 229 229 231 233 230 230 250 276 307 317 318 317 313 307 320 327 250 266 271 257 246 249 252 246 245 250 255 257 258 250 251 255 260 266 271 276 277 288 290
317 313 339 333 274 254 245 238 244 250 259 264 275 286 301 318 316 304 300 279 262 265 260 255 249 244 245 247 248 249 255 257 258 256 254 254 257 260 264 270 274 277 279
315 296 320 326 289 269 256 244 242 243 250 261 267 273 280 265 260 267 276 272 262 261 256 251 250 246 244 246 247 249 252 256 256 258 260 257 255 260 264 266 270 274 278
311 311 300 284 286 277 267 254 248 248 254 266 277 283 288 296 274 272 275 278 272 263 257 253 253 249 241 238 239 242 248 252 252 254 259 259 257 258 261 265 269 273 273
285 288 292 289 283 281 298 283 260 252 253 258 266 273 279 278 273 272 274 278 280 277 273 264 262 263 257 249 238 233 240 249 249 247 253 257 259 260 260 264 269 273 274
277 273 273 279 280 271 272 274 268 263 259 262 268 271 269 267 269 273 276 277 278 278 276 270 264 262 265 266 257 250 248 253 251 246 244 247 252 257 258 263 266 267 271
277 277 274 270 268 267 269 271 272 271 272 272 271 272 272 270 270 272 273 275 279 279 279 276 271 270 270 269 267 264 264 266 266 259 243 242 248 252 256 260 263 267 267
261 263 266 268 264 264 265 267 269 270 270 273 272 270 269 267 267 267 270 271 275 277 278 276 269 269 271 271 268 268 269 270 271 270 263 246 245 253 254 257 259 260 264